EW2108 Weather Reports


time (UTC)temp
C
wind
direction
speed
KPH
gust
KPH
rain 1hr
cm
rain 24hr
cm
rain mn
cm
humidity
%
barometer
mb
20190424123012 19 5 0.0 1.6 0.00 0.03 0.03 85 1022.1
20190424121511 19 5 1.6 4.8 0.00 0.03 0.03 85 1022.0
20190424120014 19 59 1.6 6.4 0.00 0.03 0.03 85 1022.0
20190424114513 19 38 0.0 4.8 0.00 0.03 0.03 84 1022.1
20190424113023 20 24 3.2 6.4 0.00 0.03 0.03 83 1022.3
20190424111506 20 36 0.0 9.7 0.00 0.03 0.03 83 1022.4
20190424110009 20 51 0.0 6.4 0.00 0.03 0.03 83 1022.3
20190424104504 20 40 1.6 9.7 0.00 0.03 0.03 82 1022.4
20190424103003 20 15 3.2 9.7 0.00 0.03 0.03 82 1022.6
20190424101625 20 36 0.0 9.7 0.00 0.03 0.03 82 1022.5
20190424094744 20 37 3.2 8.0 0.00 0.05 0.03 84 1022.4
20190424093206 20 28 3.2 8.0 0.00 0.05 0.03 84 1022.5
20190424091812 20 35 1.6 8.0 0.00 0.05 0.03 82 1022.4
20190424090225 20 20 1.6 6.4 0.00 0.05 0.03 80 1022.4
20190424083119 20 92 1.6 4.8 0.00 0.05 0.03 79 1022.1
20190424081836 21 53 1.6 6.4 0.00 0.05 0.03 79 1022.1
20190424080147 21 69 1.6 6.4 0.00 0.05 0.03 78 1021.9
20190424073202 21 95 0.0 4.8 0.00 0.05 0.03 76 1021.9
20190424071624 21 95 1.6 4.8 0.00 0.05 0.03 75 1021.7
20190424064659 22 126 1.6 6.4 0.00 0.05 0.03 74 1021.5
20190424063149 22 127 1.6 6.4 0.00 0.05 0.03 73 1021.6
20190424061628 22 112 3.2 9.7 0.00 0.05 0.03 70 1021.7
20190424060058 22 118 3.2 9.7 0.00 0.05 0.03 70 1021.5
20190424054646 23 105 3.2 11.3 0.00 0.05 0.03 69 1021.7
20190424053137 23 94 3.2 9.7 0.00 0.05 0.03 68 1021.8
20190424051609 23 101 4.8 12.9 0.00 0.05 0.03 66 1022.0
20190424050116 23 134 3.2 11.3 0.00 0.05 0.03 68 1022.0
20190424044619 23 112 6.4 16.1 0.00 0.05 0.03 66 1022.0
20190424043142 23 145 4.8 11.3 0.00 0.05 0.03 65 1022.1
20190424041606 23 121 3.2 14.5 0.00 0.05 0.03 67 1022.1
20190424040057 23 116 8.0 16.1 0.00 0.05 0.03 63 1022.2
20190424034614 24 111 4.8 11.3 0.00 0.05 0.03 63 1022.3
20190424033102 24 122 6.4 12.9 0.00 0.05 0.03 61 1022.5
20190424031635 25 118 3.2 11.3 0.00 0.05 0.03 57 1022.5
20190424030034 26 120 3.2 6.4 0.00 0.05 0.03 58 1022.9
20190424024608 26 144 1.6 4.8 0.00 0.05 0.03 55 1023.4
20190424023054 26 77 1.6 6.4 0.00 0.05 0.03 55 1023.5
20190424021702 27 62 1.6 9.7 0.00 0.05 0.03 55 1023.6
20190424020023 26 85 3.2 9.7 0.00 0.05 0.03 54 1023.8
20190424014519 26 360 3.2 6.4 0.00 0.05 0.03 60 1024.1
20190424011509 25 69 1.6 6.4 0.00 0.05 0.03 61 1024.5
20190424010010 26 67 3.2 8.0 0.00 0.05 0.03 62 1024.6
20190424004842 26 360 1.6 6.4 0.00 0.05 0.03 64 1024.8
20190424003123 25 38 1.6 4.8 0.00 0.05 0.03 64 1025.0
20190424003030 25 38 1.6 8.0 0.00 0.05 0.03 66 1025.0
20190424001740 25 349 3.2 6.4 0.00 0.05 0.03 70 1025.2
20190424000130 24 341 3.2 8.0 0.03 0.05 0.03 73 1025.3
20190423234616 23 33 3.2 6.4 0.03 0.05 0.03 79 1025.2
20190423233104 22 355 1.6 6.4 0.03 0.05 0.03 83 1025.1
20190423231610 21 36 1.6 4.8 0.03 0.05 0.03 89 1025.1
20190423230043 20 130 0.0 4.8 0.00 0.03 0.00 94 1025.1
20190423224618 19 130 0.0 3.2 0.00 0.03 0.00 95 1025.0
20190423223105 19 130 0.0 3.2 0.00 0.03 0.00 96 1025.1
20190423221625 18 130 0.0 3.2 0.00 0.03 0.00 96 1025.1
20190423220049 18 22 0.0 3.2 0.00 0.03 0.00 97 1025.2
20190423214625 18 22 0.0 0.0 0.00 0.03 0.00 97 1025.3
20190423213041 17 22 0.0 0.0 0.00 0.03 0.00 97 1025.2
20190423210034 17 22 0.0 0.0 0.00 0.03 0.00 97 1024.9
20190423204520 16 22 0.0 0.0 0.00 0.03 0.00 96 1024.7
20190423203110 16 22 0.0 0.0 0.00 0.03 0.00 95 1024.4
20190423201542 17 22 0.0 0.0 0.00 0.03 0.00 96 1024.5
20190423200041 17 22 0.0 0.0 0.00 0.03 0.00 96 1024.3
20190423194513 17 22 0.0 0.0 0.00 0.03 0.00 95 1024.2
20190423193022 17 22 0.0 0.0 0.00 0.03 0.00 95 1024.1
20190423191505 17 22 0.0 0.0 0.00 0.03 0.00 95 1024.0
20190423190001 17 22 0.0 0.0 0.00 0.03 0.00 95 1024.1
20190423184739 17 22 0.0 0.0 0.00 0.03 0.00 95 1024.1
20190423183206 17 22 0.0 0.0 0.00 0.03 0.00 95 1024.1
20190423181702 18 22 0.0 0.0 0.00 0.03 0.00 95 1024.0
20190423180132 18 22 0.0 0.0 0.00 0.03 0.00 94 1024.0
20190423174723 18 22 0.0 0.0 0.00 0.03 0.00 94 1024.0
20190423173142 18 22 0.0 0.0 0.00 0.03 0.00 94 1024.0
20190423171702 18 22 0.0 1.6 0.00 0.03 0.00 94 1024.0
20190423170057 18 22 0.0 0.0 0.00 0.03 0.00 94 1024.0
20190423164615 18 22 0.0 0.0 0.00 0.03 0.00 93 1024.1
20190423163149 18 22 0.0 1.6 0.00 0.03 0.00 93 1024.1
20190423161610 18 22 0.0 0.0 0.00 0.03 0.00 93 1024.3
20190423160055 19 22 0.0 0.0 0.00 0.03 0.00 91 1024.3
20190423153101 20 22 0.0 3.2 0.00 0.03 0.00 91 1024.8
20190423151612 20 22 0.0 1.6 0.00 0.03 0.00 90 1024.9
20190423150037 20 43 0.0 8.0 0.00 0.03 0.00 90 1025.0
20190423144550 20 19 0.0 3.2 0.00 0.03 0.00 90 1025.1
20190423143235 20 19 0.0 4.8 0.00 0.03 0.00 89 1025.1
20190423141540 20 19 0.0 4.8 0.00 0.03 0.00 89 1025.2
20190423140052 20 19 0.0 4.8 0.00 0.03 0.00 89 1025.3
20190423134544 20 19 0.0 3.2 0.00 0.03 0.03 89 1025.4
20190423133131 20 19 0.0 4.8 0.00 0.03 0.03 89 1025.5
20190423131651 20 19 0.0 3.2 0.00 0.03 0.03 89 1025.6
20190423130131 20 19 0.0 3.2 0.00 0.03 0.03 90 1025.7